Weather in Igra

Russia / Udmurt Republic     57°32′24″N   53°05′10″E
temp.,
°C
wind,
m/s
gust,
m/s
humid.,
%
clouds,
%
prec.,
mm/h
press.,
hPa
HPBL,
m
10 august, wed
wed1001:00+17nne1197100 3.6 101914
04:00+17ene119396 3.6 101811
07:00+18w129594 1.4 101872
10:00+24sw23675 1.5 1018496
13:00+26w235612 1.3 10171338
16:00+26w4451100 1.3 10161620
19:00+21nw25796 0.4 1017271
22:00+16nw399169 0.8 1018293
11 august, thu
thu1101:00+14nw3789100 0.0 1019330
04:00+13nw268972 0.0 1019289
07:00+13nw498238 0.0 1020395
10:00+17nw58610 0.0 1021997
13:00+19nw575375 0.0 10211636
16:00+18nw485293 0.0 10221747
19:00+17nw266953 0.1 1021289
22:00+13w228051 0.1 102237
12 august, fri
fri1201:00+15w27654 0.0 1022185
04:00+14w2672100 0.0 1021152
07:00+15w3970100 0.0 1021335
10:00+19w4856100 0.0 1021690
13:00+22w584452 0.0 10201809
16:00+22w5848100 0.0 10191619
19:00+20w41059100 0.0 1018785
22:00+16wsw312766 0.0 1018316
13 august, sat
sat1301:00+15wsw312805 0.0 1018305
04:00+14w31183100 0.0 1018283
07:00+16wnw39812 0.0 1018282
10:00+21nw47463 0.0 10191122
13:00+23nw57440 0.0 10191739
16:00+22nw57450 0.0 10201825
19:00+19nw38615 0.0 1020354
22:00+13n22790 0.0 102215
14 august, sun
sun1401:00+11nne11810 0.0 102310
04:00+10n11800 0.0 102310
07:00+13n12670 0.0 102499
10:00+19n22430 0.0 10241026
13:00+21n22365 0.0 10231647
16:00+22n22385 0.0 10231624
19:00+17nne116268 0.0 102314
22:00+13n116946 0.0 102311